Regional Weather Roundup
Issued by NWS

Home | Current Version | Previous Version | Text Only | Print | Product List | Glossary On
Versions: 1 2 3 4 5 6 7 8 9 10 11 12 13 14 15 16 17 18 19 20 21 22 23 24 25 26 27 28 29 30 31 32 33 34 35 36 37 38 39 40 41 42 43 44 45 46 47 48 49 50
986
ASUS44 KMEG 200310
RWRTN
TENNESSEE HOURLY STATE WEATHER ROUNDUP
NATIONAL WEATHER SERVICE MEMPHIS TN
1000 PM CDT FRI JUL 19 2019

TNZ002-004-019-021-049-052-054-088>092-200400-
WEST TENNESSEE

CITY           SKY/WX    TMP DP  RH WIND       PRES   REMARKS
MEMPHIS INTL   MOCLDY    83  76  79 S7        30.00R HX  91
NWS MEMPHIS      N/A     84 N/A N/A MISG        N/A
JACKSON        FAIR      81  78  91 S3        30.01R
DYERSBURG      FAIR      81  77  88 S3        30.00R
SOMERVILLE     CLEAR     81  77  89 S3        30.00S
COVINGTON      CLEAR     82  77  83 S5        29.98S HX  91
UNION CITY     CLEAR     81  77  89 S7        29.96S
BOLIVAR        CLEAR     81  77  89 S3        30.01R
PARIS          CLEAR     81  77  89 S5        29.99R
HUNTINGDON     CLEAR     82  77  83 S6        29.99S HX  91
LEXINGTON      CLEAR     81  77  89 S5        30.01R
SELMER           N/A     81  75  83 CALM      30.02S
SAVANNAH       CLEAR     81  79  94 CALM      30.02S
$$

TNZ008-025-027-028-033-062-065-066-200400-
NORTH MIDDLE TENNESSEE

CITY           SKY/WX    TMP DP  RH WIND       PRES   REMARKS
NASHVILLE      FAIR      85  73  67 SW6       30.03R HX  91
PORTLAND       CLEAR     79  77  94 S6        30.01S
CLARKSVILLE    FAIR      82  76  81 S6        30.00R
LEBANON        MOCLDY    81  73  78 CALM      30.01R
SMYRNA         FAIR      81  75  82 S3        30.03R
MURFREESBORO     N/A     81  75  83 S6        30.01R
COOKEVILLE     CLEAR     75  73  94 CALM      30.06S
LIVINGSTON     CLEAR     77  73  88 SW3       30.07R
GALLATIN       MOCLDY    82  77  83 CALM      30.04R HX  91
CROSSVILLE     FAIR      72  70  93 W3        30.12S
ROCKWOOD       CLEAR     73  72  94 CALM      30.09S
$$

TNZ061-075-076-078-094-096-097-200400-
SOUTH MIDDLE TENNESSEE

CITY           SKY/WX    TMP DP  RH WIND       PRES   REMARKS
LAWRENCEBURG   CLEAR     79  75  89 CALM      30.05S
LEWISBURG      CLEAR     81  75  83 CALM      30.03S
FAYETTEVILLE   PTCLDY    79  75  89 SW3       30.06S
TULLAHOMA      CLEAR     77  73  88 CALM      30.05F
WINCHESTER     CLEAR     77  75  94 SE3       30.07R
MCMINNVILLE    CLEAR     75  73  94 CALM      30.06R
COLUMBIA       PTCLDY    79  79 100 CALM      30.02R
SHELBYVILLE    CLEAR     77  75  94 CALM      30.04S
$$

TNZ017-018-042-046-047-200400-
NORTHEAST TENNESSEE

CITY           SKY/WX    TMP DP  RH WIND       PRES   REMARKS
TRI CITIES     FAIR      75  71  87 CALM      30.09R
ELIZABETHTON   FAIR      75  72  88 CALM      30.09S
GREENEVILLE    CLEAR     75  72  88 CALM      30.09R
$$

TNZ012-013-036-069-073-074-200400-
CENTRAL EAST TENNESSEE

CITY           SKY/WX    TMP DP  RH WIND       PRES   REMARKS
KNOXVILLE      MOCLDY    75  67  76 SW3       30.05S
OAK RIDGE      FAIR      82  72  71 S3        30.06S
DOWNTOWN KNOXV PTCLDY    79  70  73 SW6       30.06R
GATLINBURG     CLEAR     77  68  73 S3        30.06R
MORRISTOWN     MOCLDY    79  75  89 CALM      30.06S
JACKSBORO      CLEAR     77  75  94 CALM      30.09F
$$

TNZ083-085-099-200400-
SOUTHEAST TENNESSEE

CITY           SKY/WX    TMP DP  RH WIND       PRES   REMARKS
CHATTANOOGA    MOCLDY    82  77  84 S5        30.06R HX  90
DAYTON         PTCLDY    77  75  94 CALM      30.04S
$$

SKY/WX REPORTED AS FAIR MEANS FEW OR NO CLOUDS BELOW
12 THOUSAND FEET.





USA.gov is the U.S. government's official web portal to all federal, state and local government web resources and services.